Weather History for Coldwater, MI

Change the Weather History Date:

Tuesday, October 2, 2012

  Actual Average (KJYM) Record (KJYM)
Temperature  
Mean Temperature 58 °F -  
Max Temperature 65 °F 67 °F 88 °F (1971)
Min Temperature 52 °F 43 °F 25 °F (1974)
Degree Days  
Heating Degree Days 6    
Growing Degree Days 8 (Base 50)    
Moisture  
Dew Point 51 °F    
Average Humidity 74    
Maximum Humidity 94    
Minimum Humidity 59    
Precipitation  
Precipitation 0.00 in - - ()
Sea Level Pressure  
Sea Level Pressure 29.85 in    
Wind  
Wind Speed 6 mph (ENE)    
Max Wind Speed 15 mph    
Max Gust Speed 24 mph    
Visibility 10 miles    
Events Rain    
Averages and records for this station are not official NWS values.
T = Trace of Precipitation, MM = Missing Value Source: NWS Daily Summary

Daily Weather History Graph

Daily Weather History Graph

Search for Another Location

Airport:

Trip Planner

Search our weather history database for the weather conditions in past years. The results will help you decide how hot, cold, wet, or windy it might be!

Date:

Astronomy

Oct. 02, 2012 Rise Set
Actual Time 7:38 AM EDT 7:19 PM EDT
Civil Twilight 7:10 AM EDT 7:47 PM EDT
Nautical Twilight 6:38 AM EDT 8:19 PM EDT
Astronomical Twilight 6:05 AM EDT 8:51 PM EDT
Moon 8:28 PM EDT (10/2) 10:08 AM EDT (10/2)
Length of Visible Light 12h 36m
Length of Day
11h 40m
Waning Gibbous, 94% of the Moon is Illuminated
Oct 2
Waning Gibbous
Oct 8
Last Quarter
Oct 15
New
Oct 21
First Quarter
Oct 29
Full

Hourly Weather History & Observations

Time (EDT) Temp. Dew Point Humidity Pressure Visibility Wind Dir Wind Speed Gust Speed Precip Events Conditions
12:14 AM 55.4 °F 46.9 °F 73% 29.83 in 10.0 mi East 3.5 mph - N/A   Overcast
12:35 AM 56.3 °F 46.4 °F 69% 29.81 in 10.0 mi ENE 8.1 mph - N/A   Overcast
12:55 AM 56.5 °F 45.9 °F 68% 29.81 in 10.0 mi East 5.8 mph - N/A   Overcast
1:14 AM 56.7 °F 45.7 °F 67% 29.81 in 10.0 mi East 5.8 mph - N/A   Overcast
1:35 AM 56.5 °F 45.7 °F 67% 29.81 in 10.0 mi East 4.6 mph - N/A   Overcast
1:54 AM 56.3 °F 45.5 °F 67% 29.82 in 10.0 mi East 3.5 mph - N/A   Overcast
2:15 AM 56.3 °F 45.9 °F 68% 29.81 in 10.0 mi Calm Calm - N/A   Overcast
3:15 AM 55.6 °F 45.9 °F 70% 29.81 in 10.0 mi NE 4.6 mph - N/A   Overcast
3:35 AM 55.0 °F 46.4 °F 73% 29.80 in 10.0 mi ENE 4.6 mph - N/A   Overcast
3:54 AM 55.4 °F 46.0 °F 71% 29.81 in 10.0 mi East 4.6 mph - N/A   Overcast
4:15 AM 55.0 °F 46.0 °F 72% 29.81 in 10.0 mi ENE 3.5 mph - N/A   Overcast
4:35 AM 55.0 °F 46.2 °F 72% 29.81 in 10.0 mi NE 3.5 mph - N/A   Overcast
4:54 AM 54.5 °F 46.6 °F 75% 29.81 in 10.0 mi NE 4.6 mph - N/A Rain Light Rain
5:15 AM 53.8 °F 47.8 °F 80% 29.82 in 10.0 mi Calm Calm - N/A Rain Light Rain
5:35 AM 53.6 °F 48.4 °F 82% 29.82 in 10.0 mi NE 5.8 mph - N/A Rain Light Rain
5:55 AM 53.6 °F 48.6 °F 83% 29.83 in 10.0 mi Calm Calm - N/A Rain Light Rain
6:35 AM 52.5 °F 49.1 °F 88% 29.84 in 10.0 mi ENE 6.9 mph - N/A Rain Light Rain
6:55 AM 52.7 °F 49.3 °F 88% 29.83 in 10.0 mi NE 6.9 mph - N/A Rain Light Rain
7:15 AM 52.7 °F 49.6 °F 89% 29.83 in 10.0 mi NE 5.8 mph - N/A Rain Light Rain
7:34 AM 52.7 °F 49.5 °F 89% 29.84 in 10.0 mi ENE 5.8 mph - N/A   Overcast
7:55 AM 52.5 °F 49.6 °F 90% 29.84 in 10.0 mi NE 4.6 mph - N/A   Mostly Cloudy
8:15 AM 52.5 °F 50.0 °F 91% 29.84 in 10.0 mi NE 4.6 mph - N/A   Mostly Cloudy
8:34 AM 53.1 °F 50.5 °F 91% 29.86 in 10.0 mi ENE 5.8 mph - N/A   Overcast
8:55 AM 54.0 °F 50.9 °F 89% 29.86 in 10.0 mi ENE 5.8 mph - N/A   Overcast
9:15 AM 54.5 °F 51.1 °F 88% 29.86 in 10.0 mi ENE 5.8 mph - N/A   Overcast
9:34 AM 55.4 °F 51.3 °F 86% 29.86 in 10.0 mi NE 9.2 mph - N/A   Overcast
9:55 AM 56.7 °F 51.3 °F 82% 29.86 in 10.0 mi NE 9.2 mph - N/A   Overcast
10:15 AM 58.3 °F 51.3 °F 77% 29.86 in 10.0 mi ENE 9.2 mph - N/A   Overcast
10:34 AM 58.1 °F 50.4 °F 75% 29.86 in 10.0 mi ENE 6.9 mph - N/A   Overcast
10:55 AM 58.5 °F 50.7 °F 75% 29.86 in 10.0 mi NE 8.1 mph - N/A   Overcast
11:15 AM 59.2 °F 50.7 °F 74% 29.86 in 10.0 mi North - - N/A   Overcast
11:34 AM 60.8 °F 50.7 °F 69% 29.86 in 10.0 mi ENE 10.4 mph - N/A   Overcast
11:55 AM 61.7 °F 50.5 °F 67% 29.86 in 10.0 mi NE 11.5 mph 17.3 mph N/A   Overcast
12:15 PM 63.0 °F 48.2 °F 59% 29.86 in 10.0 mi ENE 15.0 mph 24.2 mph N/A   Overcast
12:35 PM 63.0 °F 49.1 °F 61% 29.86 in 10.0 mi ENE 12.7 mph 20.7 mph N/A   Overcast
12:55 PM 63.3 °F 50.2 °F 62% 29.86 in 10.0 mi East 13.8 mph 20.7 mph N/A   Overcast
1:14 PM 63.7 °F 50.9 °F 63% 29.86 in 10.0 mi ENE 12.7 mph - N/A   Overcast
1:35 PM 65.5 °F 51.4 °F 60% 29.85 in 10.0 mi ENE 6.9 mph 16.1 mph N/A   Overcast
1:55 PM 64.6 °F 51.6 °F 63% 29.84 in 10.0 mi East 10.4 mph 16.1 mph N/A   Overcast
2:14 PM 64.4 °F 51.4 °F 63% 29.84 in 10.0 mi ENE 10.4 mph - N/A   Overcast
2:35 PM 64.4 °F 51.3 °F 62% 29.84 in 10.0 mi East 6.9 mph - N/A   Overcast
2:55 PM 64.4 °F 51.6 °F 63% 29.84 in 10.0 mi East 4.6 mph - N/A   Overcast
3:14 PM 64.6 °F 52.0 °F 64% 29.84 in 10.0 mi ENE 6.9 mph - N/A   Overcast
3:35 PM 64.6 °F 52.0 °F 64% 29.84 in 10.0 mi ENE 6.9 mph - N/A   Overcast
3:54 PM 64.4 °F 52.3 °F 65% 29.84 in 10.0 mi East 8.1 mph - N/A   Overcast
4:15 PM 64.8 °F 52.5 °F 64% 29.84 in 10.0 mi ENE 8.1 mph - N/A   Overcast
4:35 PM 64.8 °F 51.8 °F 63% 29.83 in 10.0 mi ENE 8.1 mph - N/A   Overcast
4:54 PM 65.1 °F 52.2 °F 63% 29.84 in 10.0 mi ENE 8.1 mph - N/A   Overcast
5:15 PM 64.6 °F 51.8 °F 63% 29.84 in 10.0 mi ENE 8.1 mph - N/A   Overcast
5:35 PM 64.8 °F 51.8 °F 63% 29.84 in 10.0 mi ENE 6.9 mph - N/A   Overcast
6:15 PM 64.2 °F 51.4 °F 63% 29.85 in 10.0 mi East 5.8 mph - N/A   Overcast
6:35 PM 63.9 °F 50.4 °F 61% 29.86 in 10.0 mi East 5.8 mph - N/A   Overcast
6:54 PM 63.5 °F 50.2 °F 62% 29.86 in 10.0 mi East 5.8 mph - N/A   Overcast
7:15 PM 63.3 °F 50.9 °F 64% 29.86 in 10.0 mi NE 5.8 mph - N/A   Overcast
7:34 PM 63.3 °F 51.3 °F 65% 29.88 in 10.0 mi ENE 5.8 mph - N/A   Overcast
8:15 PM 61.7 °F 52.9 °F 73% 29.88 in 10.0 mi ENE 3.5 mph - N/A Rain Rain
8:34 PM 61.0 °F 53.4 °F 76% 29.89 in 10.0 mi ENE 3.5 mph - N/A   Overcast
8:55 PM 61.3 °F 53.4 °F 75% 29.89 in 10.0 mi East 3.5 mph - N/A   Overcast
9:14 PM 61.3 °F 53.8 °F 76% 29.90 in 10.0 mi Calm Calm - N/A Rain Light Rain
9:35 PM 60.8 °F 54.0 °F 78% 29.91 in 10.0 mi ESE 5.8 mph - N/A Rain Rain
9:55 PM 59.2 °F 55.0 °F 86% 29.91 in 10.0 mi East 4.6 mph - N/A   Light Drizzle
10:14 PM 58.6 °F 55.6 °F 90% 29.90 in 5.0 mi ENE 6.9 mph - N/A Rain Heavy Rain
10:35 PM 58.3 °F 56.3 °F 93% 29.90 in 7.0 mi ENE 6.9 mph - N/A   Light Drizzle
10:55 PM 58.5 °F 56.7 °F 94% 29.90 in 7.0 mi ENE 3.5 mph - N/A   Overcast
11:14 PM 58.5 °F 56.7 °F 94% 29.90 in 7.0 mi East 4.6 mph - N/A   Overcast
11:35 PM 58.6 °F 56.7 °F 93% 29.91 in 7.0 mi East 4.6 mph - N/A   Overcast
11:55 PM 58.8 °F 56.7 °F 93% 29.91 in 7.0 mi East 3.5 mph - N/A   Overcast